,,PA_Meas_PMT16A,,PR_Meas_QMR101_102,,RH_Meas_QMH101,,SR_Meas_QMS101,,TA_Meas_QMH101,,GenWind,,GenWind,
time,status,PA,status,PR,status,RH,status,SR,status,TA,status,DirAvg,status,SpdAvg,
2012-04-17, 00:00:04,VALID,917.135,VALID,0,VALID,95.9102,VALID,0,VALID,20.8714,VALID,349,VALID,0.546094,
2012-04-17, 00:01:04,VALID,917.136,VALID,0,VALID,95.9407,VALID,0,VALID,20.8714,VALID,349,VALID,0.480078,
2012-04-17, 00:02:04,VALID,917.143,VALID,0,VALID,96.0169,VALID,0,VALID,20.8714,VALID,349,VALID,0.425,
2012-04-17, 00:03:04,VALID,917.165,VALID,0,VALID,96.0703,VALID,0,VALID,20.8714,VALID,349,VALID,0.496875,
2012-04-17, 00:04:04,VALID,917.119,VALID,0,VALID,96.1236,VALID,0,VALID,20.8714,VALID,349,VALID,0.378516,
2012-04-17, 00:05:04,VALID,917.141,VALID,0,VALID,96.1389,VALID,0,VALID,20.8714,VALID,349,VALID,0.534766,
2012-04-17, 00:06:04,VALID,917.135,VALID,0,VALID,96.1694,VALID,0,VALID,20.8519,VALID,349,VALID,0.587109,
2012-04-17, 00:07:04,VALID,917.11,VALID,0,VALID,96.2228,VALID,0,VALID,20.8925,VALID,349,VALID,0.207422,
2012-04-17, 00:08:04,VALID,917.145,VALID,0,VALID,96.2151,VALID,0,VALID,20.8519,VALID,349,VALID,0.598047,
2012-04-17, 00:09:04,VALID,917.13,VALID,0,VALID,96.2609,VALID,0,VALID,20.8324,VALID,349,VALID,0.451953,
2012-04-17, 00:10:04,VALID,917.12,VALID,0,VALID,96.3295,VALID,0,VALID,20.8324,VALID,349,VALID,0.335938,
2012-04-17, 00:11:04,VALID,917.138,VALID,0,VALID,96.3829,VALID,0,VALID,20.8324,VALID,349,VALID,0,
2012-04-17, 00:12:04,VALID,917.12,VALID,0,VALID,96.4286,VALID,0,VALID,20.8324,VALID,349,VALID,0,
2012-04-17, 00:13:04,VALID,917.137,VALID,0,VALID,96.4286,VALID,0,VALID,20.8519,VALID,349,VALID,0.196094,
2012-04-17, 00:14:04,VALID,917.139,VALID,0,VALID,96.4591,VALID,0,VALID,20.8519,VALID,349,VALID,0.394531,
2012-04-17, 00:15:04,VALID,917.112,VALID,0,VALID,96.5201,VALID,0,VALID,20.8714,VALID,349,VALID,0.262109,
2012-04-17, 00:16:04,VALID,917.112,VALID,0,VALID,96.5734,VALID,0,VALID,20.8714,VALID,349,VALID,0.148438,
2012-04-17, 00:17:04,VALID,917.096,VALID,0,VALID,96.5582,VALID,0,VALID,20.891,VALID,349,VALID,0.00117188,
2012-04-17, 00:18:04,VALID,917.096,VALID,0,VALID,96.6192,VALID,0,VALID,20.891,VALID,349,VALID,0,
2012-04-17, 00:19:04,VALID,917.046,VALID,0,VALID,96.6039,VALID,0,VALID,20.891,VALID,349,VALID,0,
2012-04-17, 00:20:04,VALID,917.062,VALID,0,VALID,96.5734,VALID,0.107441,VALID,20.891,VALID,349,VALID,0,
2012-04-17, 00:21:04,VALID,917.038,VALID,0,VALID,96.5734,VALID,0,VALID,20.8519,VALID,349,VALID,0,
2012-04-17, 00:22:04,VALID,917.032,VALID,0,VALID,96.6039,VALID,0,VALID,20.8714,VALID,349,VALID,0,
2012-04-17, 00:23:04,VALID,917.014,VALID,0,VALID,96.6573,VALID,0,VALID,20.891,VALID,349,VALID,0,
2012-04-17, 00:24:04,VALID,917.017,VALID,0,VALID,96.6878,VALID,0,VALID,20.891,VALID,349,VALID,0,
2012-04-17, 00:25:04,VALID,917.007,VALID,0,VALID,96.6649,VALID,0,VALID,20.9105,VALID,349,VALID,0,
2012-04-17, 00:26:04,VALID,916.986,VALID,0,VALID,96.6573,VALID,0,VALID,20.891,VALID,349,VALID,0,
2012-04-17, 00:27:04,VALID,916.988,VALID,0,VALID,96.642,VALID,0,VALID,20.8925,VALID,349,VALID,0,
2012-04-17, 00:28:04,VALID,916.956,VALID,0,VALID,96.6497,VALID,0,VALID,20.8519,VALID,349,VALID,0,
2012-04-17, 00:29:04,VALID,916.941,VALID,0,VALID,96.6268,VALID,0,VALID,20.8324,VALID,349,VALID,0.205078,
2012-04-17, 00:30:04,VALID,916.943,VALID,0,VALID,96.6649,VALID,0,VALID,20.8129,VALID,349,VALID,0,
2012-04-17, 00:31:04,VALID,916.899,VALID,0,VALID,96.6497,VALID,0,VALID,20.8129,VALID,349,VALID,0,
2012-04-17, 00:32:04,VALID,916.912,VALID,0,VALID,96.6725,VALID,0,VALID,20.8129,VALID,349,VALID,0,
2012-04-17, 00:33:04,VALID,916.864,VALID,0,VALID,96.6878,VALID,0,VALID,20.7739,VALID,349,VALID,0,
2012-04-17, 00:34:04,VALID,916.872,VALID,0,VALID,96.703,VALID,0,VALID,20.7934,VALID,349,VALID,0,
2012-04-17, 00:35:04,VALID,916.857,VALID,0,VALID,96.7335,VALID,0,VALID,20.7739,VALID,349,VALID,0,
2012-04-17, 00:36:04,VALID,916.858,VALID,0,VALID,96.7259,VALID,0,VALID,20.7739,VALID,349,VALID,0,
2012-04-17, 00:37:04,VALID,916.801,VALID,0,VALID,96.7488,VALID,0,VALID,20.7934,VALID,349,VALID,0,
2012-04-17, 00:38:04,VALID,916.782,VALID,0,VALID,96.764,VALID,0,VALID,20.7739,VALID,349,VALID,0,
2012-04-17, 00:39:04,VALID,916.762,VALID,0,VALID,96.7488,VALID,0,VALID,20.7934,VALID,349,VALID,0,
2012-04-17, 00:40:04,VALID,916.718,VALID,0,VALID,96.7183,VALID,0,VALID,20.7544,VALID,349,VALID,0,
2012-04-17, 00:41:04,VALID,916.72,VALID,0,VALID,96.7716,VALID,0,VALID,20.7739,VALID,349,VALID,0,
2012-04-17, 00:42:04,VALID,916.667,VALID,0,VALID,96.7793,VALID,0,VALID,20.7739,VALID,349,VALID,0.0980469,
2012-04-17, 00:43:04,VALID,916.626,VALID,0,VALID,96.7793,VALID,0,VALID,20.8145,VALID,349,VALID,0,
2012-04-17, 00:44:04,VALID,916.588,VALID,0,VALID,96.7793,VALID,0,VALID,20.795,VALID,349,VALID,0,
2012-04-17, 00:45:04,VALID,916.558,VALID,0,VALID,96.8326,VALID,0,VALID,20.8129,VALID,349,VALID,0,
2012-04-17, 00:46:04,VALID,916.515,VALID,0,VALID,96.825,VALID,0,VALID,20.8324,VALID,349,VALID,0,
2012-04-17, 00:47:04,VALID,916.52,VALID,0,VALID,96.8021,VALID,0,VALID,20.8324,VALID,349,VALID,0,
2012-04-17, 00:48:04,VALID,916.453,VALID,0,VALID,96.8021,VALID,0,VALID,20.8324,VALID,349,VALID,0.378516,
2012-04-17, 00:49:04,VALID,916.458,VALID,0,VALID,96.8098,VALID,0,VALID,20.8324,VALID,349,VALID,0.413672,
2012-04-17, 00:50:04,VALID,916.461,VALID,0,VALID,96.764,VALID,0,VALID,20.8519,VALID,349,VALID,0.5,
2012-04-17, 00:51:04,VALID,916.444,VALID,0,VALID,96.7183,VALID,0,VALID,20.8129,VALID,349,VALID,0.517578,
2012-04-17, 00:52:04,VALID,916.423,VALID,0,VALID,96.7183,VALID,0,VALID,20.8129,VALID,349,VALID,0.328906,
2012-04-17, 00:53:04,VALID,916.431,VALID,0,VALID,96.7335,VALID,0,VALID,20.8145,VALID,349,VALID,0.298047,
2012-04-17, 00:54:04,VALID,916.424,VALID,0,VALID,96.7107,VALID,0,VALID,20.7934,VALID,349,VALID,0.226953,
2012-04-17, 00:55:04,VALID,916.405,VALID,0,VALID,96.7183,VALID,0,VALID,20.7934,VALID,349,VALID,0.363672,
2012-04-17, 00:56:04,VALID,916.405,VALID,0,VALID,96.8021,VALID,0,VALID,20.8129,VALID,349,VALID,0.550781,
2012-04-17, 00:57:04,VALID,916.37,VALID,0,VALID,96.7945,VALID,0,VALID,20.8324,VALID,349,VALID,0.5,
2012-04-17, 00:58:04,VALID,916.34,VALID,0,VALID,96.7716,VALID,0,VALID,20.8324,VALID,349,VALID,0.508984,
2012-04-17, 00:59:04,VALID,916.312,VALID,0,VALID,96.7488,VALID,0,VALID,20.8324,VALID,349,VALID,0.451953,
2012-04-17, 01:00:04,VALID,916.298,VALID,0,VALID,96.6878,VALID,0,VALID,20.8129,VALID,349,VALID,0.181641,
2012-04-17, 01:01:04,VALID,916.276,VALID,0,VALID,96.642,VALID,0.107441,VALID,20.7934,VALID,349,VALID,0.00117188,
2012-04-17, 01:02:04,VALID,916.233,VALID,0,VALID,96.6115,VALID,0,VALID,20.7739,VALID,349,VALID,0,
2012-04-17, 01:03:04,VALID,916.223,VALID,0,VALID,96.642,VALID,0,VALID,20.7739,VALID,349,VALID,0,
2012-04-17, 01:04:04,VALID,916.205,VALID,0,VALID,96.6878,VALID,0,VALID,20.795,VALID,349,VALID,0,
2012-04-17, 01:05:04,VALID,916.159,VALID,0,VALID,96.6497,VALID,0,VALID,20.7739,VALID,349,VALID,0,
2012-04-17, 01:06:04,VALID,916.174,VALID,0,VALID,96.6649,VALID,0,VALID,20.7739,VALID,349,VALID,0,
2012-04-17, 01:07:04,VALID,916.149,VALID,0,VALID,96.6573,VALID,0,VALID,20.7739,VALID,349,VALID,0,
2012-04-17, 01:08:04,VALID,916.097,VALID,0,VALID,96.6268,VALID,0,VALID,20.8129,VALID,349,VALID,0,
2012-04-17, 01:09:04,VALID,916.098,VALID,0,VALID,96.6115,VALID,0,VALID,20.7934,VALID,349,VALID,0,
2012-04-17, 01:10:04,VALID,916.058,VALID,0,VALID,96.5811,VALID,0,VALID,20.7739,VALID,349,VALID,0,
2012-04-17, 01:11:04,VALID,916.058,VALID,0,VALID,96.5887,VALID,0,VALID,20.7739,VALID,349,VALID,0,
2012-04-17, 01:12:04,VALID,916.003,VALID,0,VALID,96.5963,VALID,0,VALID,20.7934,VALID,349,VALID,0,
2012-04-17, 01:13:04,VALID,916.011,VALID,0,VALID,96.6039,VALID,0,VALID,20.7934,VALID,349,VALID,0,
2012-04-17, 01:14:04,VALID,915.987,VALID,0,VALID,96.5887,VALID,0,VALID,20.7934,VALID,349,VALID,0,
2012-04-17, 01:15:04,VALID,915.943,VALID,0,VALID,96.5811,VALID,0,VALID,20.7739,VALID,349,VALID,0,
2012-04-17, 01:16:04,VALID,915.912,VALID,0,VALID,96.5658,VALID,0,VALID,20.7739,INVALID,360,VALID,0,
2012-04-17, 01:17:04,VALID,915.901,VALID,0,VALID,96.5353,VALID,0,VALID,20.7934,VALID,349,VALID,0,
2012-04-17, 01:18:04,VALID,915.84,VALID,0,VALID,96.5277,VALID,0,VALID,20.7934,VALID,349,VALID,0,
2012-04-17, 01:19:04,VALID,915.823,VALID,0,VALID,96.5201,VALID,0,VALID,20.7934,VALID,349,VALID,0,
2012-04-17, 01:20:04,VALID,915.824,VALID,0,VALID,96.5124,VALID,0,VALID,20.8145,VALID,349,VALID,0,
2012-04-17, 01:21:04,VALID,915.761,VALID,0,VALID,96.5048,VALID,0,VALID,20.8129,VALID,349,VALID,0,
2012-04-17, 01:22:04,VALID,915.757,VALID,0,VALID,96.4896,VALID,0,VALID,20.7934,VALID,349,VALID,0,
2012-04-17, 01:23:04,VALID,915.696,VALID,0,VALID,96.4819,VALID,0,VALID,20.7934,INVALID,360,VALID,0,
2012-04-17, 01:24:04,VALID,915.684,VALID,0,VALID,96.4515,VALID,0,VALID,20.7934,VALID,349,VALID,0,
2012-04-17, 01:25:04,VALID,915.688,VALID,0,VALID,96.3905,VALID,0,VALID,20.7934,VALID,349,VALID,0,
2012-04-17, 01:26:04,VALID,915.641,VALID,0,VALID,96.3752,VALID,0,VALID,20.7739,VALID,349,VALID,0,
2012-04-17, 01:27:04,VALID,915.598,VALID,0,VALID,96.3524,VALID,0,VALID,20.7739,VALID,349,VALID,0,
2012-04-17, 01:28:04,VALID,915.566,VALID,0,VALID,96.3219,VALID,0,VALID,20.7349,VALID,349,VALID,0,
2012-04-17, 01:29:04,VALID,915.591,VALID,0,VALID,96.2837,VALID,0,VALID,20.7349,VALID,349,VALID,0.528906,
2012-04-17, 01:30:04,VALID,915.543,VALID,0,VALID,96.1999,VALID,0,VALID,20.6748,VALID,349,VALID,0.683984,
2012-04-17, 01:31:04,VALID,915.528,VALID,0,VALID,96.177,VALID,0,VALID,20.6764,VALID,349,VALID,0.782422,
2012-04-17, 01:32:04,VALID,915.505,VALID,0,VALID,96.1541,VALID,0,VALID,20.6374,VALID,16,VALID,1.01875,
2012-04-17, 01:33:04,VALID,915.526,VALID,0,VALID,96.1694,VALID,0,VALID,20.6374,VALID,16,VALID,0.916016,
2012-04-17, 01:34:04,VALID,915.506,VALID,0,VALID,96.1313,VALID,0,VALID,20.6179,VALID,16,VALID,0.908203,
2012-04-17, 01:35:04,VALID,915.46,VALID,0,VALID,96.0779,VALID,0,VALID,20.6179,VALID,16,VALID,0.835156,
2012-04-17, 01:36:04,VALID,915.439,VALID,0,VALID,96.0474,VALID,0,VALID,20.5984,VALID,16,VALID,1.1457,
2012-04-17, 01:37:04,VALID,915.446,VALID,0,VALID,96.0245,VALID,0,VALID,20.5789,VALID,16,VALID,0.95,
2012-04-17, 01:38:04,VALID,915.421,VALID,0,VALID,96.0017,VALID,0,VALID,20.5789,VALID,16,VALID,1.10508,
2012-04-17, 01:39:04,VALID,915.368,VALID,0,VALID,96.0169,VALID,0,VALID,20.5594,VALID,16,VALID,1.16953,
2012-04-17, 01:40:04,VALID,915.378,VALID,0,VALID,96.0093,VALID,0,VALID,20.5399,VALID,16,VALID,0.953125,
2012-04-17, 01:41:04,VALID,915.362,VALID,0,VALID,96.0245,VALID,0,VALID,20.5609,VALID,16,VALID,0.850781,
2012-04-17, 01:42:04,VALID,915.351,VALID,0,VALID,96.0322,VALID,0,VALID,20.5204,VALID,15,VALID,0.724609,
2012-04-17, 01:43:04,VALID,915.364,VALID,0,VALID,96.0779,VALID,0,VALID,20.5009,VALID,15,VALID,0.665625,
2012-04-17, 01:44:04,VALID,915.364,VALID,0,VALID,96.1084,VALID,0,VALID,20.5009,VALID,16,VALID,0.635547,
2012-04-17, 01:45:04,VALID,915.37,VALID,0,VALID,96.1236,VALID,0,VALID,20.4813,VALID,15,VALID,0.68125,
2012-04-17, 01:46:04,VALID,915.382,VALID,0,VALID,96.1618,VALID,0,VALID,20.4813,VALID,15,VALID,0.559375,
2012-04-17, 01:47:04,VALID,915.363,VALID,0,VALID,96.1923,VALID,0,VALID,20.4618,VALID,15,VALID,0.578125,
2012-04-17, 01:48:04,VALID,915.349,VALID,0,VALID,96.1846,VALID,0,VALID,20.4618,VALID,15,VALID,0.664453,
2012-04-17, 01:49:04,VALID,915.323,VALID,0,VALID,96.177,VALID,0,VALID,20.4618,VALID,16,VALID,0.519922,
2012-04-17, 01:50:04,VALID,915.322,VALID,0,VALID,96.1999,VALID,0,VALID,20.4423,VALID,15,VALID,0.40625,
2012-04-17, 01:51:04,VALID,915.272,VALID,0,VALID,96.1923,VALID,0,VALID,20.4423,VALID,15,VALID,0.336328,
2012-04-17, 01:52:04,VALID,915.287,VALID,0,VALID,96.1923,VALID,0,VALID,20.4228,VALID,15,VALID,0.219141,
2012-04-17, 01:53:04,VALID,915.23,VALID,0,VALID,96.2075,VALID,0,VALID,20.4228,VALID,15,VALID,0.362109,
2012-04-17, 01:54:04,VALID,915.225,VALID,0,VALID,96.2456,VALID,0,VALID,20.4228,VALID,15,VALID,0.191016,
2012-04-17, 01:55:04,VALID,915.204,VALID,0,VALID,96.2075,VALID,0,VALID,20.4033,VALID,15,VALID,0.629687,
2012-04-17, 01:56:04,VALID,915.224,VALID,0,VALID,96.2075,VALID,0,VALID,20.4033,VALID,15,VALID,0.553125,
2012-04-17, 01:57:04,VALID,915.193,VALID,0,VALID,96.2151,VALID,0,VALID,20.4033,VALID,15,VALID,0.564844,
2012-04-17, 01:58:04,VALID,915.178,VALID,0,VALID,96.2609,VALID,0,VALID,20.3838,VALID,3,VALID,0.774219,
2012-04-17, 01:59:04,VALID,915.175,VALID,0,VALID,96.2914,VALID,0,VALID,20.4049,VALID,350,VALID,0.622656,
2012-04-17, 02:00:04,VALID,915.183,VALID,0,VALID,96.3371,VALID,0,VALID,20.3838,VALID,350,VALID,0.638281,
2012-04-17, 02:01:04,VALID,915.183,VALID,0,VALID,96.3524,VALID,0,VALID,20.3838,VALID,350,VALID,0.303516,
2012-04-17, 02:02:04,VALID,915.181,VALID,0,VALID,96.3752,VALID,0,VALID,20.3838,VALID,350,VALID,0,
2012-04-17, 02:03:04,VALID,915.18,VALID,0,VALID,96.3676,VALID,0,VALID,20.3643,VALID,350,VALID,0,
2012-04-17, 02:04:04,VALID,915.146,VALID,0,VALID,96.3676,VALID,0,VALID,20.3643,VALID,350,VALID,0,
2012-04-17, 02:05:04,VALID,915.165,VALID,0,VALID,96.4362,VALID,0,VALID,20.3854,VALID,350,VALID,0.326562,
2012-04-17, 02:06:04,VALID,915.171,VALID,0,VALID,96.4819,VALID,0,VALID,20.3838,VALID,350,VALID,0.230469,
2012-04-17, 02:07:04,VALID,915.14,VALID,0,VALID,96.5048,VALID,0,VALID,20.3838,VALID,350,VALID,0.046875,
2012-04-17, 02:08:04,VALID,915.1,VALID,0,VALID,96.5277,VALID,0,VALID,20.3838,VALID,350,VALID,0.196875,
2012-04-17, 02:09:04,VALID,915.146,VALID,0,VALID,96.5582,VALID,0,VALID,20.4033,VALID,350,VALID,0.374609,
2012-04-17, 02:10:04,VALID,915.137,VALID,0,VALID,96.6039,VALID,0,VALID,20.3838,VALID,350,VALID,0.360938,
2012-04-17, 02:11:04,VALID,915.115,VALID,0,VALID,96.5963,VALID,0,VALID,20.3643,VALID,350,VALID,0.178906,
2012-04-17, 02:12:04,VALID,915.141,VALID,0,VALID,96.6344,VALID,0,VALID,20.3448,VALID,350,VALID,0,
2012-04-17, 02:13:04,VALID,915.098,VALID,0,VALID,96.6649,VALID,0,VALID,20.3659,VALID,350,VALID,0,
2012-04-17, 02:14:04,VALID,915.078,VALID,0,VALID,96.6802,VALID,0,VALID,20.3448,VALID,350,VALID,0,
2012-04-17, 02:15:04,VALID,915.079,VALID,0,VALID,96.703,VALID,0,VALID,20.3253,VALID,350,VALID,0.265625,
2012-04-17, 02:16:04,VALID,915.081,VALID,0,VALID,96.7411,VALID,0,VALID,20.3448,VALID,350,VALID,0,
2012-04-17, 02:17:04,VALID,915.082,VALID,0,VALID,96.764,VALID,0,VALID,20.3448,VALID,350,VALID,0.0539063,
2012-04-17, 02:18:04,VALID,915.081,VALID,0,VALID,96.7564,VALID,0,VALID,20.3253,VALID,350,VALID,0.179688,
2012-04-17, 02:19:04,VALID,915.077,VALID,0,VALID,96.7793,VALID,0,VALID,20.3058,VALID,350,VALID,0.307031,
2012-04-17, 02:20:04,VALID,915.086,VALID,0,VALID,96.8174,VALID,0,VALID,20.3058,VALID,350,VALID,0,
2012-04-17, 02:21:04,VALID,915.061,VALID,0,VALID,96.8098,VALID,0,VALID,20.2863,VALID,350,VALID,0,
2012-04-17, 02:22:04,VALID,915.046,VALID,0,VALID,96.8098,VALID,0,VALID,20.3058,VALID,350,VALID,0,
2012-04-17, 02:23:04,VALID,915.034,VALID,0,VALID,96.825,VALID,0,VALID,20.3058,VALID,350,VALID,0.208203,
2012-04-17, 02:24:04,VALID,915.026,VALID,0,VALID,96.8555,VALID,0,VALID,20.2863,VALID,350,VALID,0,
2012-04-17, 02:25:04,VALID,915.015,VALID,0,VALID,96.8707,VALID,0,VALID,20.2863,VALID,350,VALID,0,
2012-04-17, 02:26:04,VALID,915,VALID,0,VALID,96.886,VALID,0,VALID,20.2863,VALID,350,VALID,0,
2012-04-17, 02:27:04,VALID,915.013,VALID,0,VALID,96.8936,VALID,0,VALID,20.2863,VALID,350,VALID,0,
2012-04-17, 02:28:04,VALID,915.012,VALID,0,VALID,96.9165,VALID,0,VALID,20.2863,VALID,350,VALID,0,
2012-04-17, 02:29:04,VALID,914.994,VALID,0,VALID,96.8936,VALID,0,VALID,20.2458,VALID,350,VALID,0,
2012-04-17, 02:30:04,VALID,915,VALID,0,VALID,96.9241,VALID,0,VALID,20.2668,VALID,350,VALID,0,
2012-04-17, 02:31:04,VALID,914.989,VALID,0,VALID,96.9622,VALID,0,VALID,20.2473,VALID,350,VALID,0,
2012-04-17, 02:32:04,VALID,914.982,VALID,0,VALID,96.9698,VALID,0,VALID,20.2668,VALID,350,VALID,0,
2012-04-17, 02:33:04,VALID,914.976,VALID,0,VALID,96.9775,VALID,0,VALID,20.2473,VALID,350,VALID,0,
2012-04-17, 02:34:04,VALID,914.973,VALID,0,VALID,96.9698,VALID,0,VALID,20.2263,VALID,350,VALID,0,
2012-04-17, 02:35:04,VALID,914.963,VALID,0,VALID,96.9851,VALID,0,VALID,20.2473,VALID,350,VALID,0,
2012-04-17, 02:36:04,VALID,914.942,VALID,0,VALID,96.9241,VALID,0,VALID,20.2098,VALID,350,VALID,0,
2012-04-17, 02:37:04,VALID,914.946,VALID,0,VALID,96.8784,VALID,0,VALID,20.1498,VALID,350,VALID,0,
2012-04-17, 02:38:04,VALID,914.932,VALID,0,VALID,96.9241,VALID,0,VALID,20.1303,VALID,350,VALID,0,
2012-04-17, 02:39:04,VALID,914.929,VALID,0,VALID,96.9012,VALID,0,VALID,20.0913,VALID,350,VALID,0,
2012-04-17, 02:40:04,VALID,914.89,VALID,0,VALID,96.8555,VALID,0,VALID,20.0133,VALID,350,VALID,0,
2012-04-17, 02:41:04,VALID,914.889,VALID,0,VALID,96.9394,VALID,0,VALID,20.0133,VALID,350,VALID,0,
2012-04-17, 02:42:04,VALID,914.915,VALID,0,VALID,96.9622,VALID,0,VALID,20.0133,VALID,350,VALID,0,
2012-04-17, 02:43:04,VALID,914.902,VALID,0,VALID,96.9775,VALID,0,VALID,20.0148,VALID,350,VALID,0,
2012-04-17, 02:44:04,VALID,914.913,VALID,0,VALID,97.008,VALID,0,VALID,19.9953,VALID,350,VALID,0.419141,
2012-04-17, 02:45:04,VALID,914.914,VALID,0,VALID,96.9698,VALID,0,VALID,19.9548,VALID,350,VALID,0.315625,
2012-04-17, 02:46:04,VALID,914.933,VALID,0,VALID,97.0232,VALID,0,VALID,19.9548,VALID,350,VALID,0.402734,
2012-04-17, 02:47:04,VALID,914.909,VALID,0,VALID,97.0385,VALID,0,VALID,19.9548,VALID,350,VALID,0.386719,
2012-04-17, 02:48:04,VALID,914.918,VALID,0,VALID,97.0918,VALID,0,VALID,19.9743,VALID,350,VALID,0.674609,
2012-04-17, 02:49:04,VALID,914.903,VALID,0,VALID,97.069,VALID,0,VALID,19.9548,VALID,350,VALID,0.603125,
2012-04-17, 02:50:04,VALID,914.917,VALID,0,VALID,97.0385,VALID,0,VALID,19.9353,VALID,350,VALID,0.623828,
2012-04-17, 02:51:04,VALID,914.931,VALID,0,VALID,97.0308,VALID,0,VALID,19.9353,VALID,350,VALID,0.483984,
2012-04-17, 02:52:04,VALID,914.929,VALID,0,VALID,97.0537,VALID,0,VALID,19.9158,VALID,350,VALID,0.482422,
2012-04-17, 02:53:04,VALID,914.923,VALID,0,VALID,97.0613,VALID,0,VALID,19.9563,VALID,360,VALID,1.36406,
2012-04-17, 02:54:04,VALID,914.959,VALID,0,VALID,97.0003,VALID,0,VALID,19.9353,VALID,10,VALID,1.31328,
2012-04-17, 02:55:04,VALID,914.955,VALID,0,VALID,96.947,VALID,0,VALID,19.9353,VALID,13,VALID,1.10469,
2012-04-17, 02:56:04,VALID,914.926,VALID,0,VALID,96.9089,VALID,0,VALID,19.9548,VALID,358,VALID,0.728906,
2012-04-17, 02:57:04,VALID,914.904,VALID,0,VALID,96.8631,VALID,0,VALID,19.9563,VALID,358,VALID,0.888281,
2012-04-17, 02:58:04,VALID,914.907,VALID,0,VALID,96.8326,VALID,0,VALID,19.9353,VALID,359,VALID,1.03672,
2012-04-17, 02:59:04,VALID,914.895,VALID,0,VALID,96.8479,VALID,0,VALID,19.9353,VALID,12,VALID,1.13789,
2012-04-17, 03:00:04,VALID,914.883,VALID,0,VALID,96.7869,VALID,0,VALID,19.9158,VALID,13,VALID,0.664063,
2012-04-17, 03:01:04,VALID,914.887,VALID,0,VALID,96.7945,VALID,0,VALID,19.8963,VALID,13,VALID,0.697266,
2012-04-17, 03:02:04,VALID,914.842,VALID,0,VALID,96.8098,VALID,0,VALID,19.8963,VALID,13,VALID,1.02422,
2012-04-17, 03:03:04,VALID,914.875,VALID,0,VALID,96.8021,VALID,0,VALID,19.8963,VALID,13,VALID,0.708203,
2012-04-17, 03:04:04,VALID,914.826,VALID,0,VALID,96.7564,VALID,0,VALID,19.8963,VALID,13,VALID,0.578906,
2012-04-17, 03:05:04,VALID,914.81,VALID,0,VALID,96.7335,VALID,0,VALID,19.9173,VALID,13,VALID,0.655469,
2012-04-17, 03:06:04,VALID,914.824,VALID,0,VALID,96.6725,VALID,0,VALID,19.8768,VALID,12,VALID,0.438281,
2012-04-17, 03:07:04,VALID,914.795,VALID,0,VALID,96.6802,VALID,0,VALID,19.8378,VALID,13,VALID,0.487109,
2012-04-17, 03:08:04,VALID,914.81,VALID,0,VALID,96.6954,VALID,0,VALID,19.8378,VALID,12,VALID,0.537109,
2012-04-17, 03:09:04,VALID,914.779,VALID,0,VALID,96.7107,VALID,0,VALID,19.8573,VALID,12,VALID,0.427344,
2012-04-17, 03:10:04,VALID,914.755,VALID,0,VALID,96.703,VALID,0,VALID,19.8783,VALID,12,VALID,0.438672,
2012-04-17, 03:11:04,VALID,914.757,VALID,0,VALID,96.6878,VALID,0,VALID,19.8573,VALID,12,VALID,0.280469,
2012-04-17, 03:12:04,VALID,914.737,VALID,0,VALID,96.7259,VALID,0,VALID,19.8768,VALID,12,VALID,0,
2012-04-17, 03:13:04,VALID,914.744,VALID,0,VALID,96.6725,VALID,0,VALID,19.8963,VALID,12,VALID,0,
2012-04-17, 03:14:04,VALID,914.737,VALID,0,VALID,96.6268,VALID,0,VALID,19.8963,VALID,12,VALID,0,
2012-04-17, 03:15:04,VALID,914.72,VALID,0,VALID,96.6039,VALID,0,VALID,19.8978,VALID,13,VALID,0.355859,
2012-04-17, 03:16:04,VALID,914.757,VALID,0,VALID,96.5887,VALID,0,VALID,19.8978,VALID,12,VALID,0.432813,
2012-04-17, 03:17:04,VALID,914.732,VALID,0,VALID,96.5811,VALID,0,VALID,19.8978,VALID,12,VALID,0.359766,
2012-04-17, 03:18:04,VALID,914.722,VALID,0,VALID,96.5658,VALID,0,VALID,19.9173,VALID,12,VALID,0.333594,
2012-04-17, 03:19:04,VALID,914.723,VALID,0,VALID,96.5734,VALID,0,VALID,19.9173,VALID,12,VALID,0.0824219,
2012-04-17, 03:20:04,VALID,914.713,VALID,0,VALID,96.5429,VALID,0,VALID,19.9173,VALID,12,VALID,0,
2012-04-17, 03:21:04,VALID,914.713,VALID,0,VALID,96.5506,VALID,0,VALID,19.9173,VALID,12,VALID,0.0425781,
2012-04-17, 03:22:04,VALID,914.704,VALID,0,VALID,96.5811,VALID,0,VALID,19.9158,VALID,12,VALID,0,
2012-04-17, 03:23:04,VALID,914.703,VALID,0,VALID,96.5811,VALID,0,VALID,19.9368,VALID,12,VALID,0,
2012-04-17, 03:24:04,VALID,914.679,VALID,0,VALID,96.5658,VALID,0,VALID,19.9563,VALID,12,VALID,0,
2012-04-17, 03:25:04,VALID,914.681,VALID,0,VALID,96.5811,VALID,0,VALID,19.9368,VALID,12,VALID,0,
2012-04-17, 03:26:04,VALID,914.677,VALID,0,VALID,96.5811,VALID,0,VALID,19.9563,VALID,12,VALID,0,
2012-04-17, 03:27:04,VALID,914.67,VALID,0,VALID,96.4667,VALID,0,VALID,19.8978,VALID,12,VALID,0,
2012-04-17, 03:28:04,VALID,914.653,VALID,0,VALID,96.3066,VALID,0,VALID,19.8588,VALID,12,VALID,0,
2012-04-17, 03:29:04,VALID,914.635,VALID,0,VALID,96.177,VALID,0,VALID,19.8213,VALID,12,VALID,0.139062,
2012-04-17, 03:30:04,VALID,914.621,VALID,0,VALID,96.1846,VALID,0,VALID,19.7418,VALID,12,VALID,0,
2012-04-17, 03:31:04,VALID,914.618,VALID,0,VALID,96.177,VALID,0,VALID,19.6818,VALID,12,VALID,0,
2012-04-17, 03:32:04,VALID,914.626,VALID,0,VALID,96.1618,VALID,0,VALID,19.6233,VALID,12,VALID,0,
2012-04-17, 03:33:04,VALID,914.634,VALID,0,VALID,96.3142,VALID,0,VALID,19.6428,VALID,12,VALID,0.185156,
2012-04-17, 03:34:04,VALID,914.617,VALID,0,VALID,96.3524,VALID,0,VALID,19.6638,VALID,12,VALID,0,
2012-04-17, 03:35:04,VALID,914.652,VALID,0,VALID,96.3524,VALID,0,VALID,19.6833,VALID,12,VALID,0,
2012-04-17, 03:36:04,VALID,914.64,VALID,0,VALID,96.3676,VALID,0,VALID,19.6833,VALID,12,VALID,0,
2012-04-17, 03:37:04,VALID,914.644,VALID,0,VALID,96.4057,VALID,0,VALID,19.6833,VALID,12,VALID,0,
2012-04-17, 03:38:04,VALID,914.617,VALID,0,VALID,96.3829,VALID,0,VALID,19.7238,VALID,12,VALID,0.298047,
2012-04-17, 03:39:04,VALID,914.638,VALID,0,VALID,96.4438,VALID,0,VALID,19.7028,VALID,12,VALID,0,
2012-04-17, 03:40:04,VALID,914.631,VALID,0,VALID,96.4591,VALID,0,VALID,19.7193,VALID,12,VALID,0.367188,
2012-04-17, 03:41:04,VALID,914.661,VALID,0,VALID,96.4133,VALID,0,VALID,19.7208,VALID,12,VALID,0.396875,
2012-04-17, 03:42:04,VALID,914.665,VALID,0,VALID,96.3524,VALID,0,VALID,19.7013,VALID,13,VALID,0.508984,
2012-04-17, 03:43:04,VALID,914.658,VALID,0,VALID,96.3447,VALID,0.107441,VALID,19.6818,VALID,12,VALID,0.526563,
2012-04-17, 03:44:04,VALID,914.663,VALID,0,VALID,96.2914,VALID,0,VALID,19.6233,VALID,12,VALID,0.701953,
2012-04-17, 03:45:04,VALID,914.659,VALID,0,VALID,96.2837,VALID,0,VALID,19.5858,VALID,12,VALID,0.950781,
2012-04-17, 03:46:04,VALID,914.665,VALID,0,VALID,96.36,VALID,0,VALID,19.5858,VALID,13,VALID,0.890234,
2012-04-17, 03:47:04,VALID,914.642,VALID,0,VALID,96.4515,VALID,0,VALID,19.5648,VALID,12,VALID,0.748047,
2012-04-17, 03:48:04,VALID,914.654,VALID,0,VALID,96.5658,VALID,0,VALID,19.6053,VALID,13,VALID,1.07813,
2012-04-17, 03:49:04,VALID,914.674,VALID,0,VALID,96.6115,VALID,0,VALID,19.6443,VALID,13,VALID,0.669141,
2012-04-17, 03:50:04,VALID,914.681,VALID,0,VALID,96.6725,VALID,0,VALID,19.6443,VALID,13,VALID,0.707031,
2012-04-17, 03:51:04,VALID,914.698,VALID,0,VALID,96.6802,VALID,0,VALID,19.6248,VALID,12,VALID,0.894141,